Flag for Yemen Weather past 2 weeks in Ta'izz, Yemen

Now
77 °F

Haze.


Feels Like: 79 °F
Forecast: 66 / 82 °F
Wind: 2 mph from North

Location: Taiz

Current Time: Feb 27, 2015 at 11:03:13 AM

Latest Report: Feb 27, 2015 at 10:00 AM


Visibility: 3 mi

Pressure: 30.15 "Hg

Humidity: 54%

Dew point: 59 °F

Location of Ta'izzLocation

Historic Weather in Ta'izz — Graph

°F

Ta'izz temperature yesterday

Maximum temperature yesterday: 82 °F (at 2:00 PM)
Minimum temperature yesterday: 55 °F (at 6:00 AM)
Average temperature yesterday: 70 °F

Past Weeks' High & Low Weather Summary

 TemperatureHumidityPressure
High82 °F (Feb 18, 12:00 PM)100% (Feb 25, 3:00 AM)30.21 "Hg (Feb 25, 3:00 AM)
Low52 °F (Feb 14, 6:17 AM)8% (Feb 16, 3:00 PM)29.86 "Hg (Feb 17, 10:00 AM)
Average68 °F62%30.10 "Hg
* Reported Feb 12 10:00 AM — Feb 27 10:00 AM, Ta'izz, Weather by CustomWeather, © 2015

Note: Actual official high and low records may vary slightly from our data, if they occured in-between our weather recording intervals... More about our weather records

Advertising

Ta'izz weather history for previous 24 hours

 ConditionsComfort  
Time TempWeatherWind HumidityBarometerVisibility
10:00 AM
Fri, Feb 27
77 °FHaze.2 mph54%30.15 "Hg3 mi
9:00 AM72 °FFog.3 mph65%30.15 "Hg3 mi
8:00 AM68 °FHaze.3 mph64%30.12 "Hg3 mi
7:00 AM61 °FPassing clouds.3 mph77%30.12 "Hg4 mi
3:00 AM61 °FPassing clouds.5 mph83%30.07 "Hg4 mi
2:00 AM64 °FClear.3 mph73%30.09 "Hg4 mi
1:00 AM64 °FClear.5 mph73%30.09 "Hg4 mi
12:00 AM63 °FClear.5 mph77%30.12 "Hg4 mi
11:00 PM
Thu, Feb 26
64 °FClear.3 mph73%30.12 "Hg4 mi
10:00 PM66 °FClear.3 mph73%30.12 "Hg4 mi
9:00 PM68 °FPassing clouds.6 mph69%30.12 "Hg5 mi
8:00 PM70 °FPassing clouds.7 mph64%30.12 "Hg4 mi
7:00 PM70 °FPassing clouds.7 mph64%30.09 "Hg4 mi
6:00 PM72 °FScattered clouds.12 mph61%30.09 "Hg4 mi
5:00 PM73 °FScattered clouds.10 mph53%30.07 "Hg3 mi
4:00 PM77 °FScattered clouds.8 mph42%30.04 "Hg3 mi
3:00 PM81 °FScattered clouds.15 mph39%30.04 "Hg3 mi
2:00 PM82 °FPassing clouds.12 mph35%30.04 "Hg3 mi
1:00 PM81 °FPassing clouds.9 mph37%30.07 "Hg4 mi
12:00 PM79 °FPassing clouds.6 mph37%30.09 "Hg4 mi
11:00 AM75 °FClear.7 mph41%30.12 "Hg4 mi
Weather by CustomWeather, © 2015

See weather overviewHow to use our weather pages